TimeEST,TemperatureF,Dew PointF,Humidity,Sea Level PressureIn,VisibilityMPH,Wind Direction,Wind SpeedMPH,Gust SpeedMPH,PrecipitationIn,Events,Conditions,WindDirDegrees,DateUTC
12:15 AM,26.1,12.7,57,30.01,10.0,NNW,5.8,-,N/A,,Clear,340,2013-03-04 05:15:00
12:35 AM,25.9,12.7,58,30.01,10.0,North,3.5,-,N/A,,Clear,350,2013-03-04 05:35:00
1:15 AM,25.2,12.9,60,30.01,10.0,North,5.8,-,N/A,,Clear,350,2013-03-04 06:15:00
1:55 AM,26.2,12.9,57,30.02,10.0,NNW,4.6,-,N/A,,Clear,330,2013-03-04 06:55:00
2:15 AM,25.7,12.9,58,30.03,10.0,Calm,Calm,-,N/A,,Clear,0,2013-03-04 07:15:00
2:35 AM,25.2,12.9,60,30.03,10.0,North,3.5,-,N/A,,Clear,360,2013-03-04 07:35:00
2:55 AM,25.2,13.1,60,30.03,10.0,North,3.5,-,N/A,,Clear,10,2013-03-04 07:55:00
3:15 AM,23.2,13.8,67,30.03,10.0,NNE,3.5,-,N/A,,Clear,20,2013-03-04 08:15:00
3:35 AM,21.4,13.1,70,30.03,10.0,North,3.5,-,N/A,,Clear,10,2013-03-04 08:35:00
3:55 AM,21.4,14.0,73,30.04,10.0,Calm,Calm,-,N/A,,Clear,0,2013-03-04 08:55:00
4:15 AM,19.6,14.5,81,30.04,10.0,Calm,Calm,-,N/A,,Clear,0,2013-03-04 09:15:00
4:35 AM,18.9,14.4,83,30.05,10.0,Calm,Calm,-,N/A,,Clear,0,2013-03-04 09:35:00
4:55 AM,19.2,14.7,83,30.05,10.0,Calm,Calm,-,N/A,,Clear,0,2013-03-04 09:55:00
5:15 AM,19.6,14.9,82,30.06,10.0,Calm,Calm,-,N/A,,Clear,0,2013-03-04 10:15:00
5:35 AM,18.9,14.4,83,30.07,10.0,Calm,Calm,-,N/A,,Clear,0,2013-03-04 10:35:00
5:55 AM,19.2,14.9,83,30.08,10.0,Calm,Calm,-,N/A,,Clear,0,2013-03-04 10:55:00
6:15 AM,19.6,14.5,81,30.08,10.0,Calm,Calm,-,N/A,,Clear,0,2013-03-04 11:15:00
6:35 AM,19.9,13.6,77,30.09,10.0,Calm,Calm,-,N/A,,Clear,0,2013-03-04 11:35:00
6:55 AM,18.9,13.5,79,30.09,10.0,Calm,Calm,-,N/A,,Clear,0,2013-03-04 11:55:00
7:15 AM,18.5,14.0,83,30.09,10.0,Calm,Calm,-,N/A,,Clear,0,2013-03-04 12:15:00
7:35 AM,18.7,14.2,83,30.09,10.0,Calm,Calm,-,N/A,,Clear,0,2013-03-04 12:35:00
7:55 AM,21.4,16.0,80,30.09,10.0,Calm,Calm,-,N/A,,Clear,0,2013-03-04 12:55:00
8:15 AM,23.7,16.9,75,30.11,10.0,Calm,Calm,-,N/A,,Clear,0,2013-03-04 13:15:00
8:35 AM,27.1,17.1,66,30.11,10.0,Calm,Calm,-,N/A,,Clear,0,2013-03-04 13:35:00
8:55 AM,31.1,13.6,48,30.11,10.0,Calm,Calm,-,N/A,,Clear,0,2013-03-04 13:55:00
9:15 AM,32.9,9.5,38,30.11,10.0,Calm,Calm,-,N/A,,Clear,0,2013-03-04 14:15:00
9:35 AM,33.4,9.5,37,30.10,10.0,Calm,Calm,-,N/A,,Clear,0,2013-03-04 14:35:00
9:55 AM,36.3,9.3,33,30.10,10.0,SE,3.5,-,N/A,,Clear,140,2013-03-04 14:55:00
10:15 AM,38.1,6.3,27,30.10,10.0,South,3.5,-,N/A,,Clear,170,2013-03-04 15:15:00
10:35 AM,40.5,2.1,20,30.09,10.0,Calm,Calm,-,N/A,,Clear,0,2013-03-04 15:35:00
10:55 AM,42.1,3.7,20,30.09,10.0,Calm,Calm,-,N/A,,Clear,0,2013-03-04 15:55:00
11:15 AM,42.8,4.3,20,30.09,10.0,Calm,Calm,-,N/A,,Clear,0,2013-03-04 16:15:00
11:35 AM,44.4,4.1,19,30.09,10.0,Calm,Calm,-,N/A,,Clear,0,2013-03-04 16:35:00
11:55 AM,46.8,6.8,20,30.08,10.0,SSE,3.5,-,N/A,,Clear,160,2013-03-04 16:55:00
12:15 PM,47.7,7.0,19,30.08,10.0,Calm,Calm,-,N/A,,Clear,0,2013-03-04 17:15:00
12:35 PM,48.4,7.0,19,30.06,10.0,Calm,Calm,-,N/A,,Clear,0,2013-03-04 17:35:00
12:55 PM,50.2,11.5,21,30.04,10.0,Calm,Calm,-,N/A,,Clear,0,2013-03-04 17:55:00
1:15 PM,51.6,14.0,22,30.04,10.0,Calm,Calm,-,N/A,,Clear,0,2013-03-04 18:15:00
1:55 PM,53.2,17.6,25,30.02,10.0,Calm,Calm,-,N/A,,Scattered Clouds,0,2013-03-04 18:55:00
2:15 PM,52.5,18.7,26,30.01,10.0,Calm,Calm,-,N/A,,Mostly Cloudy,0,2013-03-04 19:15:00
2:35 PM,53.2,20.3,28,30.01,10.0,Calm,Calm,-,N/A,,Overcast,0,2013-03-04 19:35:00
2:55 PM,54.0,18.0,24,30.00,10.0,South,3.5,-,N/A,,Mostly Cloudy,190,2013-03-04 19:55:00
3:15 PM,55.0,16.9,22,30.00,10.0,Calm,Calm,-,N/A,,Scattered Clouds,0,2013-03-04 20:15:00
3:35 PM,53.6,17.2,24,30.00,10.0,SE,4.6,-,N/A,,Scattered Clouds,140,2013-03-04 20:35:00
3:55 PM,53.2,15.4,22,30.01,10.0,SE,3.5,-,N/A,,Mostly Cloudy,140,2013-03-04 20:55:00
4:35 PM,53.6,16.5,23,30.01,10.0,Calm,Calm,-,N/A,,Overcast,0,2013-03-04 21:35:00
4:55 PM,53.1,17.6,25,30.00,10.0,Calm,Calm,-,N/A,,Mostly Cloudy,0,2013-03-04 21:55:00
5:15 PM,52.9,18.5,26,30.00,10.0,Calm,Calm,-,N/A,,Overcast,0,2013-03-04 22:15:00
5:35 PM,52.3,21.6,30,30.01,10.0,Calm,Calm,-,N/A,,Mostly Cloudy,0,2013-03-04 22:35:00
5:55 PM,50.7,22.8,34,30.01,10.0,Calm,Calm,-,N/A,,Mostly Cloudy,0,2013-03-04 22:55:00
6:15 PM,50.5,26.2,39,30.01,10.0,Calm,Calm,-,N/A,,Scattered Clouds,0,2013-03-04 23:15:00
6:35 PM,46.6,28.4,49,30.01,10.0,Calm,Calm,-,N/A,,Clear,0,2013-03-04 23:35:00
6:55 PM,43.7,30.6,60,30.02,10.0,SW,3.5,-,N/A,,Clear,230,2013-03-04 23:55:00
7:15 PM,42.6,28.9,58,30.02,10.0,Calm,Calm,-,N/A,,Clear,0,2013-03-05 00:15:00
7:35 PM,39.4,29.7,68,30.02,10.0,Calm,Calm,-,N/A,,Clear,0,2013-03-05 00:35:00
7:55 PM,36.7,29.3,75,30.02,10.0,Calm,Calm,-,N/A,,Clear,0,2013-03-05 00:55:00
8:15 PM,35.6,28.9,77,30.02,10.0,Calm,Calm,-,N/A,,Clear,0,2013-03-05 01:15:00
8:35 PM,34.3,28.6,79,30.02,10.0,Calm,Calm,-,N/A,,Clear,0,2013-03-05 01:35:00
8:55 PM,34.0,28.4,80,30.03,10.0,Calm,Calm,-,N/A,,Clear,0,2013-03-05 01:55:00
9:35 PM,34.7,29.3,81,30.04,10.0,Calm,Calm,-,N/A,,Scattered Clouds,0,2013-03-05 02:35:00
9:55 PM,34.7,29.8,82,30.04,10.0,Calm,Calm,-,N/A,,Scattered Clouds,0,2013-03-05 02:55:00
10:15 PM,35.4,30.4,82,30.04,10.0,Calm,Calm,-,N/A,,Scattered Clouds,0,2013-03-05 03:15:00
10:35 PM,35.6,30.2,81,30.04,10.0,Calm,Calm,-,N/A,,Clear,0,2013-03-05 03:35:00
10:55 PM,34.2,29.3,82,30.04,10.0,Calm,Calm,-,N/A,,Clear,0,2013-03-05 03:55:00
11:15 PM,33.1,28.4,83,30.05,10.0,Calm,Calm,-,N/A,,Clear,0,2013-03-05 04:15:00
11:35 PM,32.2,28.4,86,30.05,10.0,Calm,Calm,-,N/A,,Clear,0,2013-03-05 04:35:00
11:55 PM,30.9,27.1,86,30.05,10.0,Calm,Calm,-,N/A,,Clear,0,2013-03-05 04:55:00